Flag for South Africa Weather past 2 weeks in Cape Town, South Africa

Now
57 °F

Broken clouds.


Feels Like: 56 °F
Forecast: 54 / 67 °F
Wind: 6 mph from North

Location: Cape Town International Airport

Current Time: Aug 5, 2015 at 11:10:07 AM

Latest Report: Aug 5, 2015 at 10:00 AM


Visibility: N/A

Pressure: 30.33 "Hg

Humidity: 88%

Dew point: 54 °F

Location of Cape TownLocation

Historic Weather in Cape Town — Graph

°F

Cape Town temperature yesterday

Maximum temperature yesterday: 61 °F (at 2:00 PM)
Minimum temperature yesterday: 54 °F (at 12:00 AM)
Average temperature yesterday: 57 °F

Past Weeks' High & Low Weather Summary

 TemperatureHumidityPressure
High77 °F (Aug 2, 2:00 PM)100% (Jul 23, 2:00 AM)30.60 "Hg (Jul 23, 2:00 AM)
Low39 °F (Jul 26, 8:00 AM)21% (Aug 2, 3:00 PM)29.89 "Hg (Jul 30, 4:00 AM)
Average53 °F81%30.17 "Hg
* Reported Jul 21 9:00 AM — Aug 5 9:00 AM, Cape Town, Weather by CustomWeather, © 2015

Note: Actual official high and low records may vary slightly from our data, if they occured in-between our weather recording intervals... More about our weather records

Advertising

Cape Town weather history for previous 24 hours

 ConditionsComfort  
Time TempWeatherWind HumidityBarometerVisibility
9:00 AM
Wed, Aug 5
55 °FBroken clouds.3 mph94%30.33 "HgN/A
8:00 AM54 °FBroken clouds.3 mph94%30.60 "HgN/A
7:00 AM54 °FPartly sunny.9 mph100%30.30 "HgN/A
6:00 AM54 °FPartly cloudy.13 mph94%30.27 "HgN/A
5:00 AM54 °FPartly cloudy.10 mph94%30.27 "HgN/A
4:00 AM54 °FPassing clouds.15 mph94%30.27 "HgN/A
3:00 AM54 °FPassing clouds.8 mph100%30.27 "HgN/A
2:00 AM54 °FPassing clouds.13 mph94%30.27 "HgN/A
1:00 AM54 °FPassing clouds.7 mph94%30.30 "HgN/A
12:00 AM55 °FPassing clouds.9 mph88%30.27 "HgN/A
11:00 PM
Tue, Aug 4
55 °FPassing clouds.13 mph94%30.27 "HgN/A
10:00 PM57 °FPassing clouds.12 mph82%30.24 "HgN/A
9:00 PM59 °FPassing clouds.18 mph77%30.21 "HgN/A
8:00 PM59 °FPassing clouds.15 mph82%30.21 "HgN/A
7:00 PM57 °FPassing clouds.15 mph88%30.18 "HgN/A
6:00 PM59 °FPassing clouds.17 mph82%30.15 "HgN/A
5:00 PM59 °FPartly sunny.21 mph82%30.15 "HgN/A
4:00 PM61 °FPartly sunny.22 mph83%30.12 "HgN/A
3:00 PM61 °FScattered clouds.21 mph77%30.09 "HgN/A
2:00 PM61 °FScattered clouds.20 mph83%30.09 "HgN/A
1:00 PM59 °FBroken clouds.24 mph88%30.09 "HgN/A
12:00 PM59 °FBroken clouds.25 mph94%30.09 "HgN/A
11:00 AM59 °FBroken clouds.23 mph94%30.07 "HgN/A
Weather by CustomWeather, © 2015

See weather overviewHow to use our weather pages